Location: ??????????
(54.4061°N, 22.6114°E)
Time: 17:06:13
(UTC+00:00)

USA 116 - Pass Details

Date: 23 October 2019
Orbit: 405 x 834 km, 97.9° (Epoch: 18 November)

Event Time Altitude Azimuth Distance (km) Brightness Sun altitude
Exits shadow 16:52:01 - 18° (NNE) 2,382 6.8 -14.8°
Rises 16:52:02 0° 18° (NNE) 2,372 6.8 -14.8°
Reaches altitude 10° 16:54:01 10° 24° (NNE) 1,528 5.8 -15.1°
Maximum altitude 16:57:11 53° 102° (ESE) 561 3.3 -15.6°
Drops below altitude 10° 17:00:36 10° 180° (S) 1,647 6.1 -16.1°
Sets 17:02:48 0° 186° (S) 2,583 7.2 -16.4°
